Wetbulb
44.31 39.06 36.03 39.46 40.12 39.50 37.52 34.92 34.12 37.31 41.98 39.46 38.56 39.11 41.21 43.21 43.16 43.73 44.49 45.25 46.58 47.43 48.90 50.09 50.55 50.27 50.48 51.75 52.19 53.26 54.16 58.32 59.94 59.37 60.06 60.62 61.35 61.76 61.26 62.41 62.72 63.14 63.18 63.79
38.35 33.91 40.73 42.89 43.25 40.81 38.32 35.01 33.32 38.06 41.26 38.81 36.08 36.17 39.26 40.57 40.72 41.64 42.05 42.59 42.77 43.69 45.39 46.13 46.64 46.49 48.23 50.32 51.39 51.60 52.71 53.20 56.71 59.53 59.34 60.13 60.05 60.73 62.61 63.19 62.83 63.04 62.72 62.65
35.86 38.33 42.64 40.43 39.37 39.28 38.47 36.18 35.47 34.64 38.29 38.72 36.13 32.55 35.52 39.01 41.23 42.05 43.01 42.49 43.27 43.69 44.08 44.29 45.45 46.86 46.85 47.36 47.78 50.37 51.83 52.84 53.95 56.01 57.93 58.37 58.65 58.77 59.03 60.38 61.54 62.35 62.49 62.16
36.64 40.71 39.41 38.12 37.62 40.20 35.44 40.68 39.69 37.64 33.15 27.31 34.35 23.55 31.67 35.37 37.26 38.83 40.71 41.04 41.71 42.68 42.39 43.74 43.72 43.72 44.16 45.46 46.94 48.65 50.02 51.29 52.96 53.44 55.53 56.66 56.43 55.95 57.43 59.01 60.03 61.08 61.94 61.54
35.28 36.38 36.22 36.54 37.61 40.71 36.44 40.05 38.72 36.99 33.36 29.47 28.08 25.07 29.05 34.14 34.68 35.91 37.52 38.53 40.18 42.02 43.06 42.86 43.03 44.59 44.58 46.55 46.94 47.81 49.34 49.98 50.70 51.46 52.17 53.54 54.87 56.22 57.11 57.77 58.50 59.19 60.48 61.16
37.23 41.90 38.95 38.46 39.99 39.96 40.56 37.53 37.67 36.50 31.40 18.96 28.06 26.02 23.87 30.95 34.66 36.88 38.94 39.68 41.67 41.65 42.58 43.28 43.90 45.76 46.41 46.30 46.01 47.03 49.43 50.27 51.91 51.29 50.85 51.96 52.86 54.29 54.79 55.39 55.81 56.31 57.03 55.94
35.98 36.58 40.44 41.55 36.89 39.60 38.68 33.63 24.30 21.87 18.38 16.58 28.09 25.69 27.18 35.24 37.66 39.13 40.09 40.28 40.19 40.93 41.98 42.63 43.38 44.69 44.69 44.54 44.06 44.60 44.46 44.23 45.70 46.50 47.09 48.72 50.88 52.72 50.34 48.75 48.88 48.93 49.24 48.65
27.82 26.42 36.72 40.64 37.51 34.76 35.33 33.58 24.88 13.40 19.09 22.07 28.63 24.06 30.17 36.72 38.97 40.46 40.95 41.60 40.78 39.88 42.92 43.06 43.51 43.44 43.14 42.96 42.56 42.59 42.72 42.86 44.01 44.74 44.73 45.23 46.36 46.26 46.71 46.78 46.61 46.68 47.26 46.28
28.60 28.50 38.34 39.49 39.84 38.70 34.73 31.32 36.15 27.58 20.86 19.67 23.65 29.22 35.28 37.62 37.95 38.71 39.19 39.99 40.76 41.70 42.89 42.95 42.58 42.30 41.91 41.24 41.19 41.65 41.81 41.91 42.55 43.06 42.89 42.70 43.48 44.26 44.36 44.79 44.89 44.09 44.63 45.67
33.77 26.99 35.15 37.48 39.57 38.97 36.63 38.40 29.43 27.82 15.81 15.56 21.44 22.75 25.60 32.05 35.47 37.33 37.63 37.83 39.00 40.30 42.36 43.15 42.71 41.72 40.92 40.32 40.66 40.90 41.40 41.15 41.52 41.66 41.76 41.78 41.80 42.54 42.79 42.55 41.97 42.28 42.79 43.23
35.28 31.71 30.16 35.98 34.13 33.28 34.26 32.82 33.77 32.33 27.68 22.19 19.13 22.54 32.45 33.63 35.57 36.14 37.39 39.40 38.84 39.03 40.29 42.73 42.72 42.17 41.49 40.42 40.01 39.94 40.12 40.27 40.21 40.85 40.92 40.45 40.42 41.05 41.32 40.95 41.07 41.44 41.99 42.28
36.17 33.48 26.65 30.60 35.11 38.21 36.92 33.84 33.74 26.09 24.67 25.80 26.06 24.35 36.20 36.29 37.37 38.48 38.66 40.26 40.51 40.36 40.66 41.12 42.61 41.01 39.96 39.58 39.18 39.21 39.17 39.31 39.46 39.69 39.47 39.41 39.86 39.91 39.68 39.74 40.19 40.84 40.53 41.36
36.52 31.94 25.27 27.57 31.38 33.99 33.19 35.14 35.94 33.86 29.82 25.17 21.96 24.35 36.61 36.34 36.92 37.97 38.77 39.30 40.69 39.86 39.43 41.04 41.38 41.02 40.04 39.29 38.74 38.43 38.49 38.75 38.97 39.08 38.82 38.53 38.53 38.61 38.49 38.83 39.43 40.01 40.04 40.17
39.77 31.73 27.35 23.16 26.08 31.13 29.51 33.10 35.08 34.38 27.33 26.68 27.40 26.89 32.87 35.45 35.97 36.01 36.15 37.51 38.95 39.79 40.65 39.65 39.84 41.10 41.37 40.44 39.08 38.08 37.59 37.94 37.91 37.75 37.64 36.98 37.07 37.68 37.82 38.47 38.66 38.93 39.20 38.84
37.71 26.82 30.05 31.25 32.01 32.53 29.81 31.22 33.42 32.09 32.78 28.00 30.97 30.18 34.35 35.00 36.05 36.16 38.22 38.87 38.93 40.13 40.34 40.30 40.35 40.59 40.00 41.06 39.67 38.40 37.62 37.41 37.11 36.70 36.72 36.76 37.14 37.69 37.94 37.84 37.79 37.86 37.90 37.82
38.15 28.96 29.95 23.52 31.95 32.12 29.72 31.58 33.60 34.02 34.22 33.21 32.90 31.50 36.79 37.42 38.13 36.96 38.41 38.14 38.66 39.41 40.37 40.63 40.88 40.62 40.44 41.00 41.01 39.52 38.02 37.43 36.72 36.12 36.30 36.83 36.73 36.86 36.59 36.36 36.06 36.06 36.13 36.42
33.99 30.83 26.19 21.89 28.68 27.21 23.57 28.55 30.67 32.51 35.47 34.41 30.07 35.20 37.43 36.29 37.45 38.09 37.87 38.68 38.73 38.92 38.84 39.34 39.84 40.22 40.16 40.10 41.61 39.95 39.42 37.46 36.80 36.09 36.39 36.12 35.80 35.09 34.81 34.28 34.33 33.77 33.92 34.10
30.88 31.33 30.15 19.97 20.00 18.67 27.79 34.20 34.87 32.59 34.05 35.57 36.35 35.61 36.97 38.34 38.93 38.34 39.37 38.91 39.03 39.37 39.44 39.05 38.88 39.16 39.66 39.70 40.82 39.94 37.55 36.54 35.67 35.12 35.22 34.64 33.54 33.04 32.00 32.44 32.00 31.91 31.13 30.99
34.61 31.52 27.09 23.91 20.53 23.97 26.72 29.89 31.24 30.07 30.96 35.72 33.84 36.16 37.37 37.07 34.49 35.83 39.21 39.10 39.42 39.39 38.97 38.59 38.72 39.19 38.38 38.10 38.80 37.88 35.07 34.49 33.89 33.60 32.91 31.56 30.97 30.17 29.58 29.20 28.88 28.99 28.31 28.60
34.53 35.00 29.02 26.14 21.68 18.15 27.72 31.73 33.75 33.51 24.82 34.56 36.13 36.32 35.93 34.32 28.39 33.04 36.52 38.19 38.61 38.87 39.02 37.25 35.96 35.82 35.20 34.91 34.52 34.29 32.93 31.91 31.75 31.69 30.60 29.33 29.04 28.53 27.81 27.86 27.52 27.48 27.69 28.67
28.90 30.06 26.55 26.16 23.05 19.13 29.45 31.43 33.78 22.11 25.54 33.88 34.79 34.91 33.83 32.01 34.36 35.70 37.58 36.04 37.25 37.35 36.03 34.79 32.67 32.97 31.59 31.70 32.31 32.42 31.19 31.13 30.41 28.90 27.40 26.55 26.96 27.08 26.63 26.38 26.36 26.62 26.91 28.37
26.70 26.03 26.15 26.87 22.94 19.86 31.87 30.18 28.01 32.82 32.57 34.04 34.01 34.52 34.19 34.93 35.68 35.80 35.84 35.18 35.12 34.54 33.88 32.60 31.58 30.64 29.40 30.14 31.13 30.64 28.95 26.01 25.79 25.39 24.60 23.73 23.70 25.73 25.57 24.82 24.98 25.58 27.28 28.63
25.08 28.81 25.66 27.90 26.70 32.02 33.48 32.29 34.26 35.03 34.26 34.11 34.77 35.02 35.47 34.22 33.85 34.55 33.83 33.85 33.20 33.19 33.15 31.08 29.47 27.41 25.05 25.40 28.45 25.62 22.86 23.27 22.23 21.15 20.35 20.63 21.78 23.28 23.99 23.79 24.77 25.91 26.74 25.56
29.30 31.33 29.21 29.35 32.53 31.43 31.98 33.21 34.29 35.12 34.83 35.17 35.14 34.76 34.37 34.01 33.01 32.34 31.96 31.10 30.74 31.16 30.51 28.26 25.83 23.27 21.68 18.88 20.53 19.71 20.58 19.86 17.87 18.32 18.03 18.68 19.63 19.99 20.99 23.21 24.35 23.30 22.61 21.37
28.55 29.87 27.56 27.30 28.45 29.10 31.73 32.31 33.97 34.02 33.38 31.77 31.56 33.52 33.96 32.84 32.03 31.12 30.12 29.93 29.85 29.81 28.07 24.28 22.50 20.68 17.18 15.42 14.17 13.56 15.28 15.90 16.81 16.64 17.41 17.94 18.86 18.90 20.03 20.92 21.96 21.46 21.84 22.06
28.11 27.38 27.02 25.06 30.26 31.40 31.97 32.34 32.46 31.05 31.37 32.13 31.24 30.57 31.58 31.94 31.45 30.68 29.55 28.96 28.34 23.93 20.76 19.30 17.36 15.55 12.69 11.27 9.30 7.01 6.83 12.53 14.97 15.44 15.90 16.34 16.76 18.71 19.73 18.97 20.27 24.37 24.29 24.54
MSLP
1017.54 1017.86 1017.95 1017.65 1017.67 1017.47 1017.65 1017.97 1017.78 1017.95 1017.87 1017.89 1018.12 1018.12 1017.60 1016.96 1016.96 1016.65 1016.51 1016.03 1015.71 1015.41 1014.95 1015.01 1014.82 1014.82 1014.85 1014.85 1015.05 1015.24 1015.61 1015.81 1016.30 1016.78 1017.31 1017.69 1017.79 1017.95 1018.14 1018.01 1017.98 1017.99 1018.20 1018.35
1018.07 1018.04 1017.93 1017.78 1017.65 1017.47 1017.78 1017.97 1017.99 1018.23 1018.27 1018.49 1018.65 1018.52 1017.61 1017.19 1016.80 1016.42 1016.30 1015.98 1015.73 1015.71 1015.15 1014.96 1014.99 1014.92 1015.01 1014.99 1014.87 1014.99 1015.12 1015.36 1015.74 1016.13 1016.42 1016.70 1016.97 1017.17 1017.25 1017.36 1017.54 1017.59 1017.73 1017.85
1017.93 1017.85 1017.63 1017.78 1017.45 1017.60 1017.70 1017.89 1018.14 1018.66 1018.81 1018.99 1019.30 1019.08 1017.88 1016.34 1016.02 1015.93 1015.57 1015.62 1015.64 1015.63 1015.51 1015.52 1015.38 1015.30 1015.34 1015.47 1015.64 1015.58 1015.33 1015.35 1015.53 1015.72 1016.13 1016.48 1016.70 1016.86 1017.02 1017.20 1017.34 1017.25 1017.35 1017.48
1018.20 1017.81 1017.58 1017.59 1017.37 1017.37 1017.81 1017.73 1018.18 1019.05 1019.82 1020.27 1020.08 1019.97 1018.28 1016.58 1015.95 1015.56 1015.30 1015.35 1015.22 1015.44 1015.54 1015.67 1015.73 1015.73 1016.02 1016.14 1016.13 1015.77 1015.52 1015.45 1015.52 1015.65 1015.98 1016.23 1016.44 1016.82 1016.82 1016.85 1016.90 1016.99 1016.92 1017.13
1018.22 1017.94 1017.79 1017.79 1017.66 1017.57 1018.19 1018.26 1018.85 1019.65 1020.54 1021.17 1021.02 1020.93 1018.33 1016.99 1016.15 1015.27 1015.12 1015.31 1015.36 1015.45 1015.63 1016.03 1016.25 1016.28 1016.54 1016.48 1016.40 1016.23 1015.82 1015.70 1015.67 1015.61 1015.78 1016.24 1016.41 1016.44 1016.51 1016.68 1016.79 1016.85 1016.85 1016.99
1018.42 1018.09 1017.97 1017.85 1017.79 1018.00 1018.54 1019.17 1019.97 1020.72 1021.73 1022.27 1021.14 1020.50 1018.67 1017.05 1015.56 1015.34 1015.44 1015.48 1015.48 1015.70 1015.84 1016.11 1016.40 1016.68 1016.75 1016.72 1016.58 1016.48 1016.36 1016.26 1015.93 1015.70 1015.85 1016.18 1016.45 1016.49 1016.78 1017.02 1017.18 1017.09 1017.25 1017.47
1018.85 1018.66 1018.40 1018.17 1018.38 1018.61 1018.78 1019.79 1021.40 1022.50 1022.98 1021.94 1020.78 1020.45 1017.86 1015.98 1015.12 1015.03 1015.27 1015.50 1015.59 1015.77 1016.11 1016.40 1016.84 1017.24 1017.38 1017.26 1017.24 1017.14 1016.84 1016.97 1016.75 1016.44 1016.24 1016.44 1016.50 1016.52 1017.01 1017.30 1017.66 1017.62 1017.89 1018.16
1018.90 1019.32 1018.55 1018.23 1018.17 1018.41 1019.10 1019.71 1020.70 1021.84 1022.82 1022.07 1020.98 1019.36 1016.67 1015.50 1015.08 1015.11 1015.16 1015.23 1015.52 1015.79 1016.35 1016.76 1017.17 1017.45 1017.77 1017.80 1017.77 1017.77 1017.67 1017.59 1017.27 1017.15 1017.16 1017.11 1017.01 1017.09 1017.49 1017.57 1017.91 1018.18 1018.32 1018.49
1018.44 1018.49 1018.06 1018.17 1018.08 1018.46 1019.30 1019.77 1020.19 1021.32 1022.72 1022.35 1020.45 1018.56 1016.47 1015.69 1015.60 1015.48 1015.60 1015.65 1015.75 1016.11 1016.48 1016.89 1017.37 1017.57 1017.81 1017.93 1018.04 1017.99 1017.94 1018.06 1018.01 1017.89 1017.63 1017.65 1017.62 1017.62 1017.84 1017.96 1018.24 1018.45 1018.46 1018.73
1017.54 1018.47 1018.47 1018.49 1018.61 1018.72 1018.67 1019.25 1020.29 1021.14 1022.14 1021.81 1020.03 1018.67 1016.70 1016.11 1015.87 1015.97 1016.13 1016.18 1016.16 1016.28 1016.79 1017.07 1017.28 1017.49 1017.76 1017.89 1018.04 1018.05 1018.01 1018.11 1018.19 1018.20 1018.12 1018.02 1017.99 1017.94 1018.07 1018.30 1018.65 1018.79 1018.77 1018.99
1017.56 1017.92 1019.27 1018.89 1018.64 1018.37 1019.00 1019.06 1019.50 1020.18 1020.92 1020.63 1019.96 1018.29 1016.37 1015.99 1016.03 1016.10 1016.28 1016.30 1016.31 1016.45 1016.71 1017.05 1017.27 1017.41 1017.47 1017.63 1017.83 1018.05 1018.17 1018.24 1018.24 1018.20 1018.35 1018.41 1018.40 1018.45 1018.54 1018.76 1018.98 1019.15 1019.15 1019.23
1017.54 1018.11 1019.05 1018.89 1018.61 1018.40 1018.51 1018.64 1018.97 1019.56 1020.15 1020.02 1019.50 1017.91 1016.22 1015.94 1016.18 1015.96 1016.22 1016.15 1016.06 1016.13 1016.48 1016.85 1017.05 1017.29 1017.49 1017.72 1017.85 1017.91 1018.05 1018.13 1018.24 1018.26 1018.44 1018.76 1018.79 1018.91 1018.95 1019.00 1019.14 1019.23 1019.35 1019.38
1017.23 1018.37 1019.17 1019.60 1019.58 1018.92 1018.53 1018.33 1018.27 1018.72 1019.19 1019.27 1019.28 1017.72 1016.41 1016.26 1016.16 1016.03 1015.91 1015.92 1016.00 1016.10 1016.29 1016.59 1016.80 1016.98 1017.24 1017.38 1017.56 1017.69 1017.89 1018.06 1018.15 1018.28 1018.58 1018.81 1018.94 1019.01 1019.16 1019.24 1019.23 1019.23 1019.40 1019.44
1017.10 1017.75 1017.94 1018.01 1017.89 1017.83 1018.06 1017.72 1017.66 1018.05 1018.63 1017.97 1017.73 1017.16 1016.65 1016.36 1016.19 1016.05 1016.01 1015.91 1015.92 1015.97 1016.09 1016.25 1016.49 1016.42 1016.55 1016.91 1017.28 1017.41 1017.52 1017.74 1018.01 1018.27 1018.51 1018.76 1018.99 1019.19 1019.25 1019.29 1019.33 1019.25 1019.29 1019.49
1017.57 1018.01 1018.22 1018.27 1018.00 1017.93 1017.70 1017.39 1017.50 1017.71 1016.36 1017.29 1016.13 1016.60 1015.88 1015.71 1015.73 1015.58 1015.56 1015.69 1015.72 1015.53 1015.51 1015.43 1015.08 1015.34 1015.74 1016.18 1016.60 1016.93 1017.13 1017.46 1017.75 1018.11 1018.37 1018.54 1018.86 1019.17 1019.35 1019.45 1019.48 1019.39 1019.44 1019.54
1017.70 1018.31 1018.52 1018.85 1018.40 1018.35 1018.13 1017.49 1017.16 1016.52 1016.12 1016.60 1016.06 1015.78 1015.44 1015.45 1015.16 1015.09 1015.15 1015.27 1015.32 1015.23 1015.14 1015.03 1015.15 1015.21 1015.37 1015.58 1015.88 1016.04 1016.41 1016.85 1017.33 1017.85 1018.15 1018.43 1018.72 1018.99 1019.34 1019.39 1019.67 1019.67 1019.63 1019.74
1018.09 1018.13 1018.73 1019.03 1018.44 1018.59 1018.40 1016.50 1016.34 1016.07 1015.38 1015.31 1015.37 1014.59 1014.99 1015.15 1015.02 1014.78 1015.05 1015.02 1015.04 1015.12 1015.14 1015.11 1015.19 1015.15 1015.09 1015.14 1015.14 1015.58 1015.64 1016.23 1016.95 1017.44 1018.02 1018.44 1018.80 1019.14 1019.40 1019.45 1019.71 1019.83 1020.02 1020.07
1018.34 1018.38 1018.39 1018.80 1018.99 1018.12 1015.92 1015.01 1015.09 1014.90 1014.27 1014.46 1014.45 1014.29 1014.05 1014.07 1014.17 1014.55 1014.60 1014.53 1014.63 1014.69 1014.69 1014.76 1014.67 1014.83 1014.91 1014.87 1014.96 1015.02 1015.38 1015.91 1016.57 1017.20 1017.74 1018.35 1018.88 1019.29 1019.50 1019.71 1020.08 1020.30 1020.37 1020.33
1017.56 1017.90 1018.30 1018.39 1018.19 1016.97 1015.58 1014.11 1013.77 1013.89 1013.38 1013.66 1013.91 1013.14 1013.67 1013.94 1014.23 1014.15 1013.75 1013.82 1013.99 1014.02 1014.31 1014.67 1014.97 1015.10 1015.16 1015.22 1015.08 1015.08 1015.41 1015.76 1016.43 1017.00 1017.55 1018.11 1018.59 1019.13 1019.57 1019.98 1020.39 1020.52 1020.46 1020.65
1016.63 1016.85 1017.79 1017.85 1017.48 1016.13 1013.69 1013.22 1012.83 1013.63 1013.72 1012.52 1012.86 1013.02 1013.29 1013.72 1014.33 1013.71 1013.50 1013.47 1013.69 1013.98 1014.29 1014.74 1015.10 1015.29 1015.38 1015.34 1015.26 1015.42 1015.79 1016.16 1016.49 1016.84 1017.47 1018.13 1018.76 1019.40 1019.91 1020.18 1020.30 1020.30 1020.46 1020.85
1016.41 1016.30 1016.03 1016.29 1016.46 1015.44 1012.90 1012.55 1012.74 1013.62 1012.69 1011.78 1012.43 1012.53 1012.82 1013.47 1013.25 1013.18 1013.33 1013.48 1013.73 1013.99 1014.40 1014.85 1015.21 1015.58 1015.86 1015.88 1015.83 1016.02 1016.31 1016.69 1017.08 1017.53 1018.13 1018.56 1018.79 1019.14 1019.58 1020.12 1020.57 1020.79 1020.67 1020.76
1015.83 1015.00 1015.06 1015.41 1015.32 1014.09 1012.37 1012.57 1012.30 1011.39 1011.25 1011.48 1011.76 1012.06 1012.37 1012.56 1012.86 1013.15 1013.54 1013.79 1013.91 1014.26 1014.57 1015.00 1015.53 1015.98 1016.21 1016.29 1016.43 1016.73 1017.09 1017.41 1017.74 1018.26 1018.75 1019.23 1019.51 1019.73 1019.94 1020.15 1020.42 1020.63 1020.87 1021.16
1014.82 1013.71 1014.10 1014.20 1013.37 1012.04 1011.75 1011.72 1011.30 1011.31 1011.48 1011.57 1011.78 1012.05 1012.18 1012.65 1013.05 1013.19 1013.66 1013.92 1014.23 1014.63 1015.00 1015.46 1016.05 1016.61 1017.01 1017.08 1016.94 1017.33 1017.81 1018.17 1018.42 1018.75 1019.32 1019.79 1020.07 1020.29 1020.34 1020.37 1020.53 1020.78 1021.02 1021.35
1013.76 1012.80 1013.27 1013.53 1011.89 1012.29 1011.89 1011.49 1011.17 1011.18 1011.33 1011.27 1011.64 1012.11 1012.36 1012.76 1013.00 1013.42 1013.87 1014.42 1014.86 1014.99 1015.34 1015.89 1016.49 1017.09 1017.59 1017.82 1017.94 1018.11 1018.24 1018.62 1019.30 1019.53 1019.61 1020.08 1020.45 1020.80 1020.77 1020.70 1020.73 1021.05 1021.56 1021.78
1013.02 1012.96 1012.63 1012.20 1011.78 1011.90 1011.71 1011.46 1011.33 1011.37 1011.45 1011.67 1012.08 1012.33 1012.55 1012.85 1012.97 1013.55 1014.01 1014.44 1014.87 1015.23 1015.64 1016.10 1016.71 1017.39 1018.07 1018.65 1019.02 1019.24 1019.17 1018.88 1019.58 1020.22 1020.46 1020.51 1020.66 1020.96 1021.27 1021.31 1021.21 1021.49 1021.68 1021.88
1012.55 1012.25 1012.20 1011.35 1011.35 1011.30 1011.02 1010.82 1010.92 1011.50 1011.76 1011.90 1012.38 1012.71 1012.90 1013.29 1013.38 1013.70 1014.02 1014.47 1014.94 1015.39 1015.99 1016.65 1017.32 1018.09 1018.75 1019.30 1019.89 1020.17 1019.88 1019.68 1019.76 1020.52 1020.94 1021.06 1021.25 1021.48 1021.37 1021.48 1021.92 1021.91 1021.95 1022.16
Wind_Speed
3 4 7 11 8 3 5 1 5 2 2 2 4 6 10 9 6 8 8 8 9 9 6 6 5 5 6 6 7 8 8 7 4 3 4 5 7 5 4 6 7 8 6 6
4 3 5 6 6 5 1 1 1 2 4 3 3 8 13 9 8 9 11 12 9 6 8 7 7 6 5 7 7 6 7 7 6 5 3 4 4 4 5 6 7 8 7 6
5 2 6 4 5 9 5 5 2 1 0 2 5 8 7 6 11 10 12 7 7 9 9 6 6 4 3 3 5 4 5 5 6 7 3 2 1 1 0 3 4 6 7 6
3 4 1 5 2 4 5 3 4 5 4 3 3 6 7 7 7 6 10 9 9 8 1 2 4 3 4 3 5 5 4 2 2 2 3 5 5 5 3 3 4 5 7 6
5 3 4 3 3 4 3 5 5 4 3 3 4 1 9 5 8 8 3 3 5 6 4 4 3 3 3 4 4 4 4 4 3 2 3 3 3 4 2 2 4 3 4 5
2 2 3 5 2 3 7 6 7 4 4 2 10 8 6 5 6 3 3 4 5 5 5 5 3 5 4 6 6 6 6 5 5 3 1 2 4 4 3 1 2 2 2 5
2 1 2 1 4 3 5 6 3 3 2 7 3 4 8 7 4 7 8 6 3 3 5 4 5 4 4 5 6 5 6 6 6 7 7 6 5 6 7 5 3 4 3 3
6 3 8 5 5 5 5 5 5 8 5 3 3 7 7 4 3 6 6 6 3 2 5 6 6 4 3 4 5 5 6 5 6 6 6 5 6 4 4 5 4 4 3 3
5 4 5 4 3 7 5 7 2 4 2 3 5 6 9 6 4 5 5 5 5 5 6 7 6 4 4 3 2 3 3 3 4 4 5 5 5 6 5 6 5 3 4 3
3 4 2 2 2 1 4 6 2 2 3 5 5 4 6 2 7 6 6 5 4 4 5 5 4 5 4 4 3 3 4 3 2 3 3 3 4 5 5 5 5 5 4 4
3 5 1 5 8 12 5 4 5 4 4 4 1 6 6 8 7 9 7 4 4 4 2 4 4 4 5 4 4 4 3 4 3 3 2 3 2 3 5 5 4 4 4 4
6 4 4 6 2 4 4 4 6 4 4 4 2 6 3 8 8 8 7 6 7 6 6 5 6 6 6 6 5 5 4 5 4 3 3 2 2 3 4 4 4 4 4 3
8 4 4 2 4 1 7 11 8 3 3 5 5 6 0 4 7 7 9 7 4 3 4 5 5 7 7 6 6 6 6 6 5 4 4 3 3 3 3 3 4 4 4 5
8 5 7 8 4 6 7 11 16 14 4 5 9 3 5 8 7 5 2 3 5 6 5 4 6 8 7 7 7 7 7 7 6 6 6 5 4 3 3 3 4 4 4 5
7 6 3 5 2 0 2 8 14 16 23 10 18 12 10 8 6 7 7 6 4 8 7 6 4 6 5 6 7 7 7 7 6 7 6 6 5 5 4 4 3 4 4 5
5 3 4 3 7 8 6 6 13 22 22 16 12 11 4 5 7 7 7 5 6 8 8 8 8 7 8 7 8 8 8 9 7 7 7 6 6 5 5 4 4 3 4 4
3 6 4 6 4 4 3 18 11 11 17 14 18 18 4 7 9 9 7 8 8 8 7 8 8 8 8 8 6 9 10 7 9 7 6 6 5 5 5 4 3 3 3 3
3 5 4 4 4 7 10 8 17 16 12 13 13 9 10 12 10 6 7 8 9 9 10 9 7 6 6 5 5 5 6 8 8 7 7 6 6 5 4 3 3 3 2 3
16 9 2 3 7 4 5 9 14 13 21 12 12 19 13 7 2 7 9 6 11 9 6 4 1 1 4 6 7 5 6 7 7 7 7 6 6 6 5 5 4 2 3 2
13 11 7 3 6 10 17 5 5 6 7 13 14 16 11 5 4 8 3 2 5 5 2 0 2 2 4 5 5 4 5 5 7 7 8 7 6 5 4 4 4 2 2 1
7 8 16 12 8 7 10 4 7 9 12 2 8 10 6 6 7 5 5 2 2 0 2 3 1 1 3 4 1 3 4 5 3 6 6 5 5 6 6 5 2 1 2 2
6 6 8 10 6 7 6 4 11 11 2 6 5 5 6 6 6 6 6 4 2 4 4 4 3 4 2 2 1 2 4 4 6 6 6 5 4 3 3 5 3 2 2 2
4 8 5 7 6 4 9 5 4 4 4 5 7 6 7 7 7 7 6 6 4 6 5 2 3 3 2 5 2 5 4 5 5 6 6 5 4 4 3 4 4 3 3 3
5 4 5 4 10 4 1 1 2 3 5 5 4 6 5 7 6 6 4 4 5 5 6 3 4 4 3 3 3 3 5 5 4 6 6 5 5 3 2 3 4 5 4 3
6 7 6 4 4 0 6 7 7 9 6 3 2 6 9 7 8 6 5 6 6 6 5 4 6 5 5 3 4 3 2 6 6 4 3 4 4 4 4 3 4 5 3 4
6 7 7 7 5 6 8 5 6 7 6 7 6 5 6 7 9 5 7 5 4 5 2 2 3 4 4 5 4 2 3 4 7 6 3 2 2 3 4 5 5 11 10 11
Wind_Direction
220 135 190 199 182 114 120 150 217 79 334 117 227 259 266 287 277 268 267 269 261 249 254 237 266 266 248 234 201 193 186 209 173 167 173 184 203 208 214 219 225 219 218 224
72 237 226 204 216 232 227 28 301 94 162 143 249 268 266 245 243 221 227 240 249 284 299 305 307 315 290 260 231 218 212 195 190 194 198 189 168 194 199 208 219 221 218 216
145 197 201 242 174 203 184 175 235 45 50 323 26 297 275 287 233 243 250 242 234 236 253 272 281 254 5 4 339 307 264 230 219 199 165 160 98 1 171 187 209 218 216 227
211 272 113 127 166 140 177 222 208 111 90 237 123 284 304 278 267 226 245 231 236 251 248 36 358 356 46 2 348 358 11 352 244 222 196 174 183 194 203 192 201 215 210 214
220 178 145 128 188 124 161 65 135 107 104 28 287 209 267 281 267 261 262 204 162 158 133 94 73 51 32 18 4 324 324 8 345 107 129 190 196 195 203 244 230 201 191 198
118 307 145 177 184 172 146 85 52 52 87 326 222 177 267 227 224 130 97 139 147 148 113 91 80 69 47 23 30 34 56 36 21 22 7 209 210 202 176 141 159 144 60 59
115 240 46 99 101 30 114 113 45 358 328 227 295 185 242 243 189 165 158 145 118 76 121 127 100 78 47 32 18 35 52 36 31 49 58 71 98 102 108 100 97 90 88 50
151 223 171 191 186 163 177 159 159 200 201 243 317 233 250 267 116 121 124 127 85 58 144 132 136 128 101 60 42 41 39 33 36 54 61 60 73 90 90 92 96 86 92 81
150 246 127 160 138 131 169 215 177 109 21 58 233 283 308 188 108 104 101 82 90 118 157 150 136 142 141 115 84 93 88 51 29 36 60 56 61 78 95 91 89 88 77 65
156 116 179 110 100 277 160 154 140 354 173 241 265 258 237 161 169 128 101 84 72 84 143 150 165 172 163 160 164 136 135 125 88 68 69 79 88 90 96 91 88 85 78 63
183 112 203 129 204 187 163 191 200 149 171 193 247 262 232 209 166 144 154 121 101 80 89 176 202 208 184 173 178 179 155 147 133 125 118 112 98 99 102 106 105 104 97 94
186 105 169 193 311 168 228 192 190 151 231 222 146 273 285 136 161 150 173 179 172 164 183 204 208 209 206 207 203 194 183 169 178 164 137 140 124 125 123 119 117 106 99 78
174 160 137 148 342 320 206 208 212 173 86 218 150 253 196 154 139 165 168 202 215 216 221 213 206 215 227 220 211 203 202 203 197 171 162 169 184 169 159 148 130 112 107 89
178 169 185 194 172 150 196 205 211 204 188 188 222 195 193 204 189 208 194 178 184 208 221 218 223 226 226 222 219 215 210 194 193 188 186 188 192 194 179 161 145 128 112 106
185 197 202 210 59 255 217 206 205 208 224 188 233 211 231 207 216 214 206 206 241 266 254 255 311 294 258 237 222 214 214 194 186 191 194 191 181 183 179 163 150 132 122 120
188 231 156 271 228 199 242 245 210 218 232 231 240 249 201 294 304 296 279 290 274 262 271 280 280 281 281 250 230 216 206 201 178 189 198 187 178 175 182 163 167 142 127 127
239 163 133 235 199 126 231 220 213 223 230 218 234 241 196 237 238 245 265 260 249 261 265 271 264 262 267 269 245 219 214 170 186 180 185 182 182 183 180 153 147 133 125 100
242 251 169 221 80 226 236 185 204 213 227 216 241 239 216 231 239 220 223 231 252 250 260 254 253 274 283 291 289 258 176 181 179 180 174 171 170 168 152 148 160 134 105 101
208 226 223 237 210 291 306 219 189 192 240 224 228 249 248 247 244 259 239 226 230 249 266 263 316 304 316 312 305 239 191 176 166 182 173 165 162 159 161 162 154 130 101 85
198 209 193 185 237 202 238 183 162 97 277 229 214 245 239 163 193 254 250 196 125 127 129 151 309 307 316 314 313 220 208 176 186 162 160 151 143 142 152 150 144 127 114 148
196 200 213 218 238 265 249 227 121 136 237 224 192 231 216 188 215 196 169 176 163 167 159 167 115 241 287 313 252 189 169 190 131 113 114 121 133 138 140 131 94 102 127 149
217 183 204 201 212 249 156 96 162 214 219 135 169 211 221 207 195 173 180 200 235 300 229 202 201 224 255 320 253 193 161 126 113 111 112 108 94 103 105 115 111 120 120 112
223 184 184 184 218 223 206 177 251 165 183 172 165 204 209 191 197 197 201 213 260 284 270 238 237 211 12 347 241 158 154 127 120 113 115 110 97 99 115 125 117 97 87 85
256 167 193 122 240 180 192 105 148 180 205 201 168 200 210 230 213 220 205 233 246 245 242 218 194 206 206 35 52 98 128 109 108 121 126 120 120 109 79 84 87 95 78 78
194 157 180 254 258 188 249 218 215 235 243 258 185 213 223 226 249 210 229 230 233 236 221 188 195 182 168 112 82 41 70 122 116 108 104 113 109 113 99 80 104 107 104 104
174 183 189 222 203 196 241 223 191 213 225 237 235 259 236 225 251 241 260 235 227 230 202 175 156 138 142 129 118 58 33 114 124 117 104 98 80 103 115 119 102 87 91 94